This is the latest recevied weather packets stored in our database for station/object KC4JY. If no packets are shown the sender has not sent any weather packets the latest 1 day(s).
| Time | Temp. | Humidity | Pressure | Rain* | Wind** | Luminosity | Snow |
|---|---|---|---|---|---|---|---|
| 1778029249 | 19.44° C | 69% | 1016 hPa | 0 mm | 3.58 m/s, 213° | - | - |
| 1778028332 | 20° C | 69% | 1015.9 hPa | 0 mm | 3.13 m/s, 198° | - | - |
| 1778027431 | 20° C | 69% | 1015.6 hPa | 0 mm | 3.13 m/s, 202° | - | - |
| 1778026513 | 20.56° C | 68% | 1015.5 hPa | 0 mm | 3.13 m/s, 186° | - | - |
| 1778025613 | 21.11° C | 66% | 1015.4 hPa | 0 mm | 4.02 m/s, 185° | - | - |
| 1778024766 | 21.67° C | 65% | 1015.3 hPa | 0 mm | 3.58 m/s, 209° | - | - |
| 1778023854 | 22.22° C | 63% | 1015.2 hPa | 0 mm | 3.13 m/s, 192° | - | - |
| 1778022944 | 22.78° C | 62% | 1015.1 hPa | 0 mm | 2.68 m/s, 181° | - | - |
| 1778022038 | 22.78° C | 61% | 1015.2 hPa | 0 mm | 3.58 m/s, 215° | - | - |
| 1778021118 | 23.33° C | 60% | 1015.2 hPa | 0 mm | 3.13 m/s, 220° | - | - |
| 1778020224 | 23.89° C | 58% | 1015.2 hPa | 0 mm | 4.02 m/s, 193° | - | - |
| 1778019377 | 24.44° C | 56% | 1015.3 hPa | 0 mm | 3.13 m/s, 205° | - | - |
| 1778018458 | 24.44° C | 54% | 1015.2 hPa | 0 mm | 4.47 m/s, 203° | - | - |
| 1778017577 | 25° C | 50% | 1015.1 hPa | 0 mm | 4.92 m/s, 184° | - | - |
| 1778016640 | 25° C | 50% | 1015.2 hPa | 0 mm | 5.36 m/s, 196° | - | - |
| 1778015740 | 24.44° C | 51% | 1015.1 hPa | 0 mm | 5.36 m/s, 196° | - | - |
| 1778014821 | 25.56° C | 49% | 1015.1 hPa | 0 mm | 3.58 m/s, 204° | - | - |
| 1778013921 | 25.56° C | 51% | 1015 hPa | 0 mm | 4.02 m/s, 224° | - | - |
| 1778013002 | 25.56° C | 49% | 1015 hPa | 0 mm | 4.47 m/s, 187° | - | - |
| 1778012105 | 26.11° C | 49% | 1015.2 hPa | 0 mm | 4.92 m/s, 205° | - | - |
| 1778011255 | 25.56° C | 48% | 1015.4 hPa | 0 mm | 3.58 m/s, 227° | - | - |
| 1778010341 | 26.11° C | 46% | 1015.7 hPa | 0 mm | 4.47 m/s, 238° | - | - |
| 1778009421 | 25.56° C | 47% | 1015.8 hPa | 0 mm | 3.13 m/s, 197° | - | - |
| 1778008520 | 25° C | 48% | 1016.2 hPa | 0 mm | 3.13 m/s, 208° | - | - |
| 1778007601 | 25.56° C | 48% | 1016.3 hPa | 0 mm | 4.02 m/s, 200° | - | - |
* Rain latest hour (hover to see other rain measurements)
** Current wind speed in m/s (hover to see current wind gust speed)